CW0214 Weather Reports


Display with metric or nautical units.
time (UTC)temp
F
wind
direction
speed
MPH
gust
MPH
rain 1hr
in
rain 24hr
in
rain mn
in
humidity
%
barometer
mb
20260901143405 84 78 0.0 7.0 0.00 0.00 0.00 50 1018.2
20260901142905 85 135 2.0 9.0 0.00 0.00 0.00 49 1018.3
20260901142405 84 136 3.0 9.0 0.00 0.00 0.00 49 1018.4
20260901141905 84 70 0.0 12.0 0.00 0.00 0.00 50 1018.4
20260901141405 84 145 2.0 10.0 0.00 0.00 0.00 49 1018.5
20260901140405 85 142 5.0 12.0 0.00 0.00 0.00 48 1018.6
20260901135905 84 106 0.0 3.0 0.00 0.00 0.00 50 1018.6
20260901135406 84 67 1.0 12.0 0.00 0.00 0.00 51 1018.7
20260901134905 84 115 3.0 10.0 0.00 0.00 0.00 50 1018.8
20260901133405 83 144 0.0 7.0 0.00 0.00 0.00 51 1018.9
20260901132905 83 63 3.0 13.0 0.00 0.00 0.00 51 1018.9
20260901132405 83 125 2.0 12.0 0.00 0.00 0.00 51 1019.0
20260901131905 84 99 1.0 10.0 0.00 0.00 0.00 50 1019.0
20260901131405 84 84 2.0 10.0 0.00 0.00 0.00 51 1019.0
20260901130906 83 87 2.0 10.0 0.00 0.00 0.00 51 1018.9
20260901130405 83 97 2.0 10.0 0.00 0.00 0.00 51 1019.0
20260901125405 83 178 1.0 7.0 0.00 0.00 0.00 53 1019.0
20260901124905 83 43 0.0 3.0 0.00 0.00 0.00 53 1019.1
20260901124405 82 42 0.0 10.0 0.00 0.00 0.00 53 1019.1
20260901123905 82 95 2.0 10.0 0.00 0.00 0.00 54 1019.2
20260901123405 81 135 1.0 12.0 0.00 0.00 0.00 55 1019.1
20260901122905 80 127 1.0 12.0 0.00 0.00 0.00 57 1019.2
20260901122405 80 169 4.0 9.0 0.00 0.00 0.00 57 1019.3
20260901121905 80 114 5.0 12.0 0.00 0.00 0.00 57 1019.3
20260901121406 79 131 3.0 8.0 0.00 0.00 0.00 58 1019.3
20260901120905 79 145 6.0 16.0 0.00 0.00 0.00 57 1019.3
20260901120405 80 53 1.0 12.0 0.00 0.00 0.00 58 1019.3
20260901115905 79 100 2.0 12.0 0.00 0.00 0.00 59 1019.4
20260901115405 80 143 1.0 10.0 0.00 0.00 0.00 58 1019.5
20260901114905 80 109 2.0 10.0 0.00 0.00 0.00 59 1019.4
20260901114405 79 191 2.0 9.0 0.00 0.00 0.00 59 1019.5
20260901113905 78 32 0.0 9.0 0.00 0.00 0.00 60 1019.6
20260901113405 77 103 1.0 10.0 0.00 0.00 0.00 62 1019.7
20260901112905 77 41 1.0 8.0 0.00 0.00 0.00 62 1019.8
20260901112405 77 112 1.0 12.0 0.00 0.00 0.00 63 1019.9
20260901111905 77 121 4.0 12.0 0.00 0.00 0.00 63 1019.9
20260901111405 77 158 2.0 10.0 0.00 0.00 0.00 62 1019.9
20260901110905 77 93 4.0 12.0 0.00 0.00 0.00 64 1020.0
20260901110405 77 124 3.0 10.0 0.00 0.00 0.00 63 1020.0
20260901105905 77 86 2.0 12.0 0.00 0.00 0.00 64 1020.0
20260901105405 75 118 6.0 10.0 0.00 0.00 0.00 65 1020.0
20260901104905 75 128 6.0 18.0 0.00 0.00 0.00 66 1020.0
20260901104405 75 115 2.0 12.0 0.00 0.00 0.00 66 1020.1
20260901103905 75 77 2.0 12.0 0.00 0.00 0.00 68 1020.1
20260901103405 74 94 3.0 12.0 0.00 0.00 0.00 67 1020.1
20260901102905 74 128 1.0 8.0 0.00 0.00 0.00 68 1020.1
20260901101405 74 129 2.0 8.0 0.00 0.00 0.00 69 1020.2
20260901100905 73 131 2.0 8.0 0.00 0.00 0.00 70 1020.2
20260901095905 72 93 1.0 9.0 0.00 0.00 0.00 74 1020.1
20260901095404 71 120 4.0 15.0 0.00 0.00 0.00 73 1020.1
20260901094905 70 127 2.0 12.0 0.00 0.00 0.00 76 1020.0
20260901094405 69 106 1.0 9.0 0.00 0.00 0.00 78 1020.0
20260901093905 69 85 1.0 8.0 0.00 0.00 0.00 77 1019.9
20260901092904 69 127 2.0 12.0 0.00 0.00 0.00 77 1019.9
20260901092405 69 141 1.0 8.0 0.00 0.00 0.00 77 1019.9
20260901091905 69 133 2.0 12.0 0.00 0.00 0.00 76 1019.9
20260901091405 70 121 3.0 12.0 0.00 0.00 0.00 75 1019.8
20260901090405 71 104 2.0 10.0 0.00 0.00 0.00 74 1019.8
20260901085905 71 106 2.0 9.0 0.00 0.00 0.00 74 1019.7
20260901085404 71 81 1.0 6.0 0.00 0.00 0.00 73 1019.8
20260901084905 71 85 1.0 7.0 0.00 0.00 0.00 73 1019.8
20260901084405 71 142 5.0 10.0 0.00 0.00 0.00 73 1019.8
20260901083405 70 135 3.0 12.0 0.00 0.00 0.00 76 1019.7
20260901082405 69 349 1.0 13.0 0.00 0.00 0.00 77 1019.6
20260901081905 69 145 1.0 9.0 0.00 0.00 0.00 78 1019.7
20260901080905 68 119 3.0 9.0 0.00 0.00 0.00 79 1019.7
20260901080405 68 158 2.0 10.0 0.00 0.00 0.00 79 1019.7
20260901075904 68 77 0.0 6.0 0.00 0.00 0.00 81 1019.7
20260901075405 67 121 1.0 12.0 0.00 0.00 0.00 81 1019.6
20260901074905 67 111 1.0 7.0 0.00 0.00 0.00 82 1019.6
20260901074405 66 147 1.0 8.0 0.00 0.00 0.00 83 1019.6
20260901073905 66 111 0.0 8.0 0.00 0.00 0.00 83 1019.4
20260901073405 66 126 2.0 8.0 0.00 0.00 0.00 84 1019.4
20260901072905 66 143 2.0 8.0 0.00 0.00 0.00 84 1019.4
20260901072405 65 153 2.0 14.0 0.00 0.00 0.00 85 1019.3
20260901071905 65 73 1.0 12.0 0.00 0.00 0.00 86 1019.3
20260901071405 65 170 2.0 10.0 0.00 0.00 0.00 87 1019.3
20260901070904 65 146 1.0 6.0 0.00 0.00 0.00 87 1019.3
20260901070405 65 92 1.0 9.0 0.00 0.00 0.00 87 1019.3
20260901064905 64 115 2.0 9.0 0.00 0.00 0.00 88 1019.2
20260901064405 64 165 0.0 8.0 0.00 0.00 0.00 88 1019.1
20260901063905 64 82 1.0 9.0 0.00 0.00 0.00 88 1019.2
20260901063405 64 72 3.0 9.0 0.00 0.00 0.00 88 1019.1
20260901062905 64 144 1.0 9.0 0.00 0.00 0.00 88 1019.2
20260901062405 64 75 5.0 18.0 0.00 0.00 0.00 88 1019.1
20260901061905 64 128 3.0 14.0 0.00 0.00 0.00 88 1019.0
20260901061405 63 102 0.0 12.0 0.00 0.00 0.00 88 1019.0
20260901060904 63 144 3.0 10.0 0.00 0.00 0.00 88 1018.9
20260901060404 63 109 0.0 7.0 0.00 0.00 0.00 88 1018.9
20260901055905 63 138 1.0 9.0 0.00 0.00 0.00 88 1018.9
20260901055405 63 71 1.0 7.0 0.00 0.00 0.00 88 1018.8
20260901054904 63 128 1.0 9.0 0.00 0.00 0.00 88 1018.8
20260901054405 63 94 3.0 12.0 0.00 0.00 0.00 88 1018.8
20260901052905 63 123 0.0 6.0 0.00 0.00 0.00 89 1018.7
20260901052405 63 106 3.0 12.0 0.00 0.00 0.00 89 1018.7
20260901051905 63 60 1.0 12.0 0.00 0.00 0.00 89 1018.7
20260901051405 63 127 1.0 9.0 0.00 0.00 0.00 89 1018.6
20260901050904 63 129 4.0 14.0 0.00 0.00 0.00 89 1018.7
20260901050405 63 83 2.0 7.0 0.00 0.00 0.00 89 1018.7
20260901045905 63 166 2.0 12.0 0.00 0.00 0.00 89 1018.7
20260901045404 63 125 2.0 10.0 0.00 0.00 0.00 89 1018.7
20260901044905 63 151 2.0 10.0 0.00 0.00 0.00 89 1018.8
20260901044404 63 151 2.0 8.0 0.00 0.00 0.00 89 1018.7
20260901043904 63 112 2.0 6.0 0.00 0.00 0.00 89 1018.7
20260901043405 63 174 5.0 10.0 0.00 0.00 0.00 89 1018.6
20260901042904 63 161 2.0 12.0 0.00 0.00 0.00 89 1018.6
20260901042405 63 92 3.0 10.0 0.00 0.00 0.00 89 1018.5
20260901041404 63 111 0.0 8.0 0.00 0.00 0.00 89 1018.6
20260901040904 63 105 0.0 8.0 0.00 0.00 0.00 90 1018.5
20260901040405 63 107 1.0 8.0 0.00 0.00 0.00 90 1018.6
20260901035905 62 98 2.0 8.0 0.00 0.00 0.00 90 1018.5
20260901035404 62 122 1.0 7.0 0.00 0.00 0.00 90 1018.5
20260901034405 62 136 1.0 13.0 0.00 0.00 0.00 90 1018.7
20260901033904 62 148 2.0 9.0 0.00 0.00 0.00 90 1018.7
20260901033404 62 137 1.0 8.0 0.00 0.00 0.00 90 1018.7
20260901032905 62 138 2.0 12.0 0.00 0.00 0.00 90 1018.7
20260901031905 62 109 1.0 13.0 0.00 0.00 0.00 89 1018.7
20260901030905 62 112 0.0 5.0 0.00 0.00 0.00 89 1018.7
20260901030404 62 78 0.0 5.0 0.00 0.00 0.00 89 1018.7
20260901025904 62 129 5.0 12.0 0.00 0.00 0.00 89 1018.7
20260901024905 62 81 1.0 9.0 0.00 0.00 0.00 89 1018.8
20260901024404 62 124 0.0 2.0 0.00 0.00 0.00 89 1018.7
20260901023905 62 124 2.0 8.0 0.00 0.00 0.00 88 1018.8
20260901023405 62 115 0.0 0.0 0.00 0.00 0.00 88 1018.8
20260901022904 62 115 2.0 12.0 0.00 0.00 0.00 88 1018.8
20260901021904 62 128 1.0 6.0 0.00 0.00 0.00 88 1018.8
20260901021404 63 111 1.0 6.0 0.00 0.00 0.00 88 1018.8
20260901020905 63 115 0.0 5.0 0.00 0.00 0.00 88 1018.9
20260901020404 63 96 0.0 6.0 0.00 0.00 0.00 88 1018.9
20260901015404 63 113 1.0 8.0 0.00 0.00 0.00 87 1019.0
20260901014904 63 125 0.0 6.0 0.00 0.00 0.00 87 1019.1
20260901014405 63 127 0.0 5.0 0.00 0.00 0.00 87 1019.1
20260901013904 63 123 1.0 12.0 0.00 0.00 0.00 87 1019.2
20260901013404 63 122 2.0 12.0 0.00 0.00 0.00 87 1019.2
20260901012904 63 125 2.0 10.0 0.00 0.00 0.00 87 1019.2
20260901012404 63 174 1.0 6.0 0.00 0.00 0.00 87 1019.3
20260901011905 63 154 2.0 9.0 0.00 0.00 0.00 87 1019.4
20260901011404 63 122 1.0 6.0 0.00 0.00 0.00 86 1019.3
20260901010904 63 131 1.0 6.0 0.00 0.00 0.00 86 1019.4
20260901010405 63 117 1.0 6.0 0.00 0.00 0.00 86 1019.4
20260901005904 63 99 1.0 6.0 0.00 0.00 0.00 86 1019.4
20260901004404 63 140 1.0 9.0 0.00 0.00 0.00 86 1019.7
20260901003905 63 149 1.0 10.0 0.00 0.00 0.00 86 1019.6
20260901003405 63 117 1.0 9.0 0.00 0.00 0.00 86 1019.5
20260901002905 63 194 0.0 5.0 0.00 0.00 0.00 86 1019.6
20260901002404 63 142 1.0 15.0 0.00 0.00 0.00 86 1019.5
20260901001905 63 124 3.0 15.0 0.00 0.00 0.00 86 1019.5
20260901001405 63 84 6.0 12.0 0.00 0.00 0.00 85 1019.6
20260901000905 63 160 4.0 12.0 0.00 0.00 0.00 85 1019.6
20260831235904 63 115 2.0 12.0 0.00 0.00 0.00 85 1019.6
20260831235404 64 129 1.0 8.0 0.00 0.00 0.00 85 1019.7
20260831234405 64 162 1.0 8.0 0.00 0.00 0.00 84 1019.7
20260831233904 64 149 2.0 9.0 0.00 0.00 0.00 84 1019.7
20260831233405 64 128 2.0 12.0 0.00 0.00 0.00 84 1019.7
20260831232905 64 131 2.0 9.0 0.00 0.00 0.00 84 1019.8
20260831232405 64 95 0.0 8.0 0.00 0.00 0.00 84 1019.8
20260831231904 64 139 3.0 12.0 0.00 0.00 0.00 84 1019.9
20260831230404 64 116 1.0 6.0 0.00 0.00 0.00 83 1019.9
20260831225404 64 117 2.0 10.0 0.00 0.00 0.00 82 1019.9
20260831224405 64 73 1.0 8.0 0.00 0.00 0.00 82 1020.0
20260831223904 64 141 1.0 7.0 0.00 0.00 0.00 82 1020.0
20260831223404 64 57 1.0 9.0 0.00 0.00 0.00 82 1020.0
20260831222905 64 71 2.0 12.0 0.00 0.00 0.00 82 1020.0
20260831221904 64 107 1.0 10.0 0.00 0.00 0.00 81 1020.0
20260831221404 64 137 3.0 18.0 0.00 0.00 0.00 81 1020.0
20260831220904 65 84 2.0 10.0 0.00 0.00 0.00 81 1020.0
20260831220404 65 105 2.0 16.0 0.00 0.00 0.00 81 1020.0
20260831215904 65 112 2.0 14.0 0.00 0.00 0.00 81 1020.0
20260831215404 65 82 5.0 12.0 0.00 0.00 0.00 80 1020.0
20260831214904 65 88 4.0 13.0 0.00 0.00 0.00 80 1020.0
20260831214405 65 83 1.0 15.0 0.00 0.00 0.00 79 1020.1
20260831213904 65 132 3.0 20.0 0.00 0.00 0.00 79 1020.0
20260831213404 65 115 4.0 12.0 0.00 0.00 0.00 79 1020.0
20260831212905 66 107 1.0 12.0 0.00 0.00 0.00 78 1020.0
20260831211904 66 135 3.0 10.0 0.00 0.00 0.00 77 1020.1
20260831211404 66 68 3.0 12.0 0.00 0.00 0.00 77 1020.0
20260831210908 66 36 0.0 6.0 0.00 0.00 0.00 76 1020.1
20260831210404 66 41 2.0 14.0 0.00 0.00 0.00 76 1020.0
20260831205905 66 127 3.0 13.0 0.00 0.00 0.00 76 1019.9
20260831205404 67 130 1.0 12.0 0.00 0.00 0.00 76 1019.9
20260831203905 67 101 3.0 10.0 0.00 0.00 0.00 74 1019.8
20260831202904 68 96 4.0 12.0 0.00 0.00 0.00 73 1019.8
20260831202405 68 111 3.0 14.0 0.00 0.00 0.00 73 1019.7
20260831201904 68 91 5.0 18.0 0.00 0.00 0.00 72 1019.7
20260831201404 68 139 2.0 10.0 0.00 0.00 0.00 71 1019.6
20260831200904 69 73 1.0 12.0 0.00 0.00 0.00 71 1019.6
20260831200404 69 111 1.0 10.0 0.00 0.00 0.00 70 1019.5
20260831195404 69 37 1.0 8.0 0.00 0.00 0.00 69 1019.6
20260831194904 69 170 1.0 14.0 0.00 0.00 0.00 68 1019.5
20260831194405 70 99 0.0 8.0 0.00 0.00 0.00 68 1019.4
20260831193904 70 139 1.0 12.0 0.00 0.00 0.00 66 1019.3
20260831193404 70 104 2.0 6.0 0.00 0.00 0.00 65 1019.3
20260831192905 71 98 2.0 10.0 0.00 0.00 0.00 64 1019.2
20260831192406 71 33 0.0 10.0 0.00 0.00 0.00 63 1019.1
20260831191906 71 120 3.0 12.0 0.00 0.00 0.00 62 1019.2
20260831190406 72 90 2.0 12.0 0.00 0.00 0.00 61 1019.1
20260831185905 73 128 1.0 9.0 0.00 0.00 0.00 61 1018.9
20260831185406 73 105 1.0 9.0 0.00 0.00 0.00 60 1018.8
20260831184905 74 125 3.0 15.0 0.00 0.00 0.00 60 1018.7
20260831184405 74 91 2.0 12.0 0.00 0.00 0.00 59 1018.7
20260831183906 74 137 2.0 12.0 0.00 0.00 0.00 58 1018.6
20260831183406 75 137 2.0 14.0 0.00 0.00 0.00 57 1018.7
20260831182405 76 89 1.0 13.0 0.00 0.00 0.00 56 1018.6
20260831181905 76 124 1.0 12.0 0.00 0.00 0.00 56 1018.6
20260831181405 76 110 3.0 16.0 0.00 0.00 0.00 55 1018.6
20260831180905 77 115 2.0 16.0 0.00 0.00 0.00 55 1018.6
20260831180406 77 80 0.0 10.0 0.00 0.00 0.00 54 1018.6
20260831175905 77 110 1.0 12.0 0.00 0.00 0.00 54 1018.6
20260831175406 78 117 2.0 10.0 0.00 0.00 0.00 53 1018.6
20260831174905 78 134 1.0 10.0 0.00 0.00 0.00 53 1018.6
20260831173905 78 101 1.0 9.0 0.00 0.00 0.00 52 1018.7
20260831173405 79 91 0.0 9.0 0.00 0.00 0.00 51 1018.6
20260831172905 79 104 3.0 20.0 0.00 0.00 0.00 50 1018.6
20260831172405 79 180 2.0 14.0 0.00 0.00 0.00 50 1018.7
20260831171405 80 107 1.0 10.0 0.00 0.00 0.00 49 1018.6
20260831170906 80 115 3.0 13.0 0.00 0.00 0.00 49 1018.7
20260831170405 80 94 1.0 10.0 0.00 0.00 0.00 49 1018.7
20260831165905 81 92 1.0 10.0 0.00 0.00 0.00 48 1018.6
20260831165405 81 56 2.0 10.0 0.00 0.00 0.00 47 1018.7
20260831164405 82 108 1.0 15.0 0.00 0.00 0.00 45 1018.6
20260831163405 82 123 1.0 8.0 0.00 0.00 0.00 43 1018.5
20260831162906 82 126 2.0 8.0 0.00 0.00 0.00 44 1018.5
20260831162405 82 47 2.0 12.0 0.00 0.00 0.00 43 1018.5
20260831161405 83 136 4.0 13.0 0.00 0.00 0.00 42 1018.5
20260831160405 83 118 2.0 10.0 0.00 0.00 0.00 39 1018.7
20260831155406 84 144 6.0 14.0 0.00 0.00 0.00 39 1018.8
20260831154905 84 100 1.0 10.0 0.00 0.00 0.00 40 1018.8
20260831154405 83 159 1.0 6.0 0.00 0.00 0.00 39 1018.7
20260831153905 84 94 1.0 7.0 0.00 0.00 0.00 38 1018.8
20260831153405 84 230 2.0 8.0 0.00 0.00 0.00 38 1018.8
20260831152905 84 69 1.0 7.0 0.00 0.00 0.00 38 1018.8
20260831152406 84 100 2.0 12.0 0.00 0.00 0.00 39 1018.8
20260831151405 84 0 1.0 8.0 0.00 0.00 0.00 37 1018.7
20260831150905 85 14 2.0 6.0 0.00 0.00 0.00 37 1018.7
20260831150405 85 82 5.0 15.0 0.00 0.00 0.00 38 1018.7
20260831145905 85 95 1.0 9.0 0.00 0.00 0.00 37 1018.8
20260831145405 85 103 2.0 12.0 0.00 0.00 0.00 37 1018.8
20260831144905 85 107 0.0 10.0 0.00 0.00 0.00 35 1018.8
20260831144405 85 343 1.0 10.0 0.00 0.00 0.00 35 1018.9
20260831143905 85 138 2.0 8.0 0.00 0.00 0.00 33 1018.9